Location: Proctor
(47.8934°N, 114.3048°W)
Time: 12:26:25
(UTC+00:00)

Explorer 11/Cluster Stage 4 - Visible Passes

Search period start: 25 June 2024 00:00
Search period end: 05 July 2024 00:00
Orbit: 465 x 1217 km, 28.8° (Epoch: 24 June)

Date Brightness Start Highest point End Pass type
(mag) Time Alt. Az. Time Alt. Az. Time Alt. Az.
25 Jun 8.8 04:14:59 10° SW 04:19:54 18° S 04:24:43 10° SE visible
25 Jun 8.8 06:03:04 10° SW 06:07:11 15° SSW 06:07:21 15° SSW visible
26 Jun 8.8 05:45:03 10° SW 05:49:12 15° SSW 05:50:23 15° S visible
27 Jun 8.9 05:27:06 10° SW 05:31:11 15° SSW 05:33:21 13° S visible
28 Jun 9.0 05:09:12 10° SW 05:13:10 15° SSW 05:16:17 12° S visible
29 Jun 9.1 04:51:23 10° SW 04:55:09 14° SSW 04:58:56 10° SSE visible
30 Jun 9.1 04:33:39 10° SW 04:37:08 13° SSW 04:40:39 10° S visible
01 Jul 9.2 04:16:02 10° SW 04:19:07 13° SSW 04:22:15 10° S visible
